Dewpoint
73 74 74 73 73 74 74 74 73 74 74 74 74 74 73 73 74 74 75 74 75 75 75 75 75 75 75 75 75 75 75 75 75 75 75 75 75 75 75 75 75 75 76 76 76 76 76 76 76 75 75 75 76 75 75 76 75 75 75 75 75 75 75 74 75 75 75 75 74 74 75 75 75 75 75 74 74 75 75 74 73 71 74 74 74
72 74 73 75 75 74 74 73 73 74 74 74 73 73 74 73 73 74 74 74 75 75 75 75 75 75 75 75 75 75 75 76 75 75 75 75 75 75 76 75 75 75 76 76 76 76 75 75 75 75 75 74 75 74 75 75 75 75 75 75 75 74 74 75 75 75 75 74 75 74 74 75 75 75 75 75 74 75 75 74 73 72 73 74 74
73 73 73 75 75 75 74 74 73 74 74 73 73 73 74 74 74 73 73 73 74 74 75 75 75 75 75 75 75 75 75 75 75 75 75 75 75 75 76 75 75 75 76 75 75 76 75 75 74 75 75 74 75 75 75 75 75 75 75 75 75 75 75 75 75 75 75 75 75 75 75 74 75 75 75 75 75 75 74 74 73 72 73 74 74
72 72 73 75 76 75 75 74 74 75 74 73 73 73 73 73 73 73 72 73 73 73 74 76 75 76 75 74 75 75 75 75 75 75 75 75 76 76 76 76 76 75 75 75 76 75 75 75 75 75 75 75 76 75 75 75 75 75 75 75 75 75 75 74 74 74 75 75 75 73 73 73 73 73 74 74 74 74 74 73 73 73 73 74 74
71 72 73 75 75 76 75 75 75 75 74 73 73 72 73 73 73 73 72 72 74 74 74 76 75 76 75 75 75 75 75 75 75 76 75 75 75 76 76 76 75 75 75 76 75 75 76 76 76 75 75 75 75 75 75 75 75 75 75 75 75 75 75 75 75 75 75 75 75 73 73 74 74 73 73 73 73 74 73 73 74 73 73 73 73
72 72 73 73 73 75 75 75 75 75 74 73 73 72 73 72 73 74 74 73 75 74 75 75 76 75 75 75 75 75 75 75 75 76 76 75 75 75 75 76 76 76 76 76 75 75 76 76 76 75 75 75 75 75 75 75 76 76 75 75 75 75 75 75 75 75 75 74 73 73 75 75 74 73 72 72 72 72 73 73 73 73 73 74 74
71 72 72 73 74 75 76 75 75 74 74 74 74 74 73 73 74 74 74 74 75 75 75 75 75 75 75 75 76 75 75 75 75 75 76 75 75 75 75 76 76 75 75 76 75 75 76 76 75 75 75 75 75 75 75 75 76 76 75 75 75 75 75 75 75 75 74 72 73 74 73 74 74 73 73 72 72 72 72 72 72 72 73 73 72
72 72 73 72 74 75 76 76 75 75 76 75 75 74 74 74 75 75 75 75 75 75 75 75 75 76 75 76 76 75 75 75 75 75 75 75 75 75 75 76 76 76 75 75 75 76 76 75 75 76 75 75 75 75 74 74 75 76 75 75 75 75 75 75 75 75 74 74 74 73 74 74 74 74 73 73 72 72 71 70 71 72 72 72 72
71 72 72 72 73 75 76 76 75 76 75 75 75 75 76 76 75 75 75 75 75 76 76 76 75 75 76 75 75 76 75 75 75 75 75 75 75 75 76 76 75 76 76 76 75 75 75 75 75 75 75 75 75 75 75 75 75 75 75 75 75 75 75 74 74 74 72 74 74 74 74 74 73 73 73 73 73 73 72 71 71 72 73 72 71
71 72 72 73 73 76 76 76 75 75 75 75 75 75 75 76 76 76 75 75 75 76 75 75 75 75 75 75 75 75 75 75 74 75 75 75 75 75 76 76 76 76 76 76 75 75 75 75 75 75 75 75 75 75 76 75 75 74 74 74 75 75 75 74 74 73 73 74 74 74 75 74 73 72 74 74 73 72 71 72 71 69 70 71 72
72 72 72 73 73 76 76 76 76 75 75 75 75 75 75 75 75 75 76 76 76 76 75 75 75 75 75 75 75 75 75 75 75 75 75 75 75 75 76 76 76 75 75 75 75 75 75 75 75 75 76 76 75 75 75 75 75 75 74 74 75 75 75 74 72 72 73 73 73 73 72 73 73 75 75 74 74 73 73 72 71 72 71 69 70
71 72 73 73 75 76 75 76 76 75 75 75 75 75 75 75 76 76 76 76 75 75 75 75 75 75 75 75 75 75 75 75 75 75 74 75 76 75 76 76 76 75 75 75 75 75 75 75 76 76 76 76 75 75 75 75 75 75 74 74 74 74 75 74 72 71 73 73 73 73 71 70 73 72 74 75 74 74 73 73 73 73 72 73 72
70 71 71 73 74 76 75 75 75 75 75 75 75 75 75 75 75 76 75 75 75 75 75 75 75 75 75 75 75 75 75 75 74 74 74 74 75 76 75 75 75 75 74 75 75 75 76 76 76 76 75 75 75 75 75 75 74 74 74 74 74 74 74 74 72 72 72 72 72 73 72 73 73 75 73 75 75 75 73 73 73 73 73 73 73
70 70 72 73 74 76 75 75 75 75 75 75 75 75 75 75 75 75 75 75 75 75 75 75 75 75 75 75 75 75 74 74 74 74 75 75 75 76 76 75 74 74 74 75 75 76 76 76 75 75 75 75 75 75 75 75 74 74 74 75 74 74 74 74 72 72 72 71 72 72 72 73 73 73 73 73 73 74 74 74 73 73 73 73 73
70 71 73 73 74 74 76 75 75 75 75 75 75 74 73 73 74 74 75 75 75 74 75 75 75 73 74 74 74 74 74 74 74 75 75 75 75 75 74 74 74 74 75 75 76 76 75 75 75 75 75 75 75 75 75 75 74 74 74 75 75 74 76 71 71 72 71 72 72 71 70 72 73 72 71 72 72 72 71 72 74 74 73 73 73
71 72 73 73 75 76 76 75 74 75 75 74 74 74 74 74 74 74 74 74 74 74 75 75 74 75 74 74 74 74 74 74 75 75 75 75 75 74 75 74 74 75 75 75 75 75 75 75 75 75 75 75 75 75 75 75 75 75 75 75 75 75 76 74 73 72 71 72 72 71 71 71 73 72 72 71 71 71 71 71 71 71 73 73 73
72 73 73 73 74 75 75 74 74 74 74 74 74 75 74 74 74 73 73 73 73 74 73 74 74 74 74 74 75 75 74 74 75 75 74 75 75 75 74 75 75 75 75 75 75 75 75 75 75 75 75 75 75 75 76 76 76 75 75 74 75 75 76 75 72 72 71 72 72 70 70 72 72 72 72 72 72 72 72 72 71 71 71 70 72
72 73 73 73 73 74 73 74 75 75 76 74 74 74 74 73 74 73 73 73 73 73 73 73 73 74 74 74 74 74 73 74 74 75 75 75 75 75 75 75 75 75 75 75 75 76 75 75 75 75 75 75 75 76 76 75 75 75 75 75 76 76 75 76 72 72 71 72 71 70 70 72 74 73 73 72 72 72 72 72 72 72 72 72 71
71 72 72 72 72 73 72 73 75 74 74 75 75 74 73 73 73 73 73 74 73 74 73 73 73 74 74 74 74 73 73 74 74 74 74 75 75 75 75 75 75 75 75 75 76 76 76 76 75 75 75 75 76 75 74 74 76 76 76 76 77 75 75 76 73 73 72 72 71 70 70 73 74 74 73 72 72 72 72 72 72 73 72 72 72
71 71 71 73 73 74 74 73 74 74 75 74 75 75 73 72 72 72 73 74 74 74 74 73 73 74 74 74 73 73 73 74 74 74 74 75 75 75 75 75 75 75 75 75 76 75 75 76 75 75 75 76 76 75 76 76 77 77 77 78 76 75 71 71 73 73 71 70 72 70 72 74 75 73 73 73 73 73 72 72 73 73 73 73 73
71 72 72 73 73 73 73 73 75 75 74 74 73 75 73 73 72 73 73 74 74 74 73 74 74 74 74 73 73 74 74 75 75 75 74 75 75 75 75 75 75 75 76 75 76 76 76 76 76 76 76 76 76 76 76 77 77 77 78 77 76 72 72 73 71 72 71 71 73 70 73 74 75 73 73 73 74 74 73 73 72 72 73 73 73
70 71 72 72 72 73 73 73 74 75 75 73 73 74 74 74 74 73 74 73 73 73 75 75 74 74 74 74 74 74 76 77 77 74 76 75 74 75 75 75 75 75 76 76 76 76 75 75 75 75 75 75 76 73 74 75 76 76 77 77 73 73 75 73 72 71 71 71 72 72 74 74 74 74 73 74 74 74 73 73 73 73 74 73 73
69 72 72 71 72 72 73 73 74 75 73 73 72 73 73 74 74 74 73 73 74 73 73 73 74 74 75 75 76 75 76 76 76 75 75 74 74 75 75 75 75 76 75 75 74 75 74 74 75 75 75 75 75 75 73 71 72 75 75 73 73 73 75 74 72 70 71 70 70 74 74 74 74 75 74 74 74 74 74 74 74 74 74 74 74
68 69 70 71 72 72 72 72 73 74 73 73 73 72 72 73 73 73 72 73 73 72 72 73 73 75 74 75 74 75 76 77 74 76 75 75 76 76 76 76 76 76 75 74 73 75 75 75 75 75 74 74 73 72 71 72 72 73 73 72 72 73 72 71 68 70 71 71 69 74 74 74 74 75 75 75 74 75 74 74 75 75 75 75 75
68 69 70 70 71 71 72 72 73 74 73 73 73 72 72 73 73 73 72 72 72 73 73 73 73 74 74 76 75 75 75 76 75 75 75 76 75 75 75 75 74 74 75 75 74 75 74 74 74 74 74 73 72 73 73 73 74 71 71 71 71 73 69 70 69 69 71 73 72 74 74 74 74 75 75 75 76 76 76 75 75 76 76 76 76
69 68 69 70 70 70 71 72 73 73 73 73 72 72 73 72 73 72 72 73 73 73 73 74 74 75 75 75 75 76 75 74 75 75 75 75 74 74 74 74 73 74 75 74 73 75 74 73 74 73 72 72 72 73 74 75 71 71 71 73 72 72 70 68 68 70 71 71 72 73 74 75 75 75 76 76 76 76 76 76 76 75 75 75 76
68 68 69 69 70 71 72 72 72 73 72 72 73 73 72 72 72 73 72 73 73 73 73 74 73 75 75 75 74 73 73 73 74 74 74 74 74 73 72 73 74 73 75 73 73 74 73 73 74 74 74 71 70 73 75 72 74 69 69 69 71 66 69 68 68 69 70 72 72 72 74 75 74 75 76 76 76 76 76 76 76 76 76 76 76
68 68 68 69 70 70 72 72 72 72 73 73 73 72 73 72 72 73 73 73 73 72 72 72 74 75 75 75 74 73 73 73 74 74 74 74 73 73 74 73 72 73 75 74 72 73 74 73 75 74 74 74 70 71 70 72 72 73 67 65 67 67 69 68 69 70 68 69 70 74 74 74 75 76 77 77 77 76 76 77 77 76 76 76 76
67 67 68 68 69 71 71 71 72 72 72 72 72 72 73 73 73 73 73 73 73 73 73 74 74 74 75 75 75 73 73 72 73 73 74 73 73 73 73 72 73 73 74 72 73 74 73 73 74 73 74 74 72 70 72 69 71 71 70 66 63 66 66 68 69 67 67 67 69 70 73 73 75 76 77 77 76 77 77 77 77 76 76 77 76
66 67 68 69 70 71 71 70 71 72 72 71 72 72 73 73 72 73 74 74 73 73 74 73 73 74 73 74 73 73 72 72 72 74 73 73 73 73 73 72 72 73 73 73 73 74 73 73 73 74 72 73 72 73 73 70 67 68 70 68 64 62 68 67 69 68 68 68 70 70 73 73 73 75 77 78 78 78 77 77 76 77 76 77 77
67 67 68 69 70 70 70 71 72 73 72 71 72 72 73 73 73 73 73 73 74 74 73 73 73 73 74 75 75 75 73 72 72 73 73 73 74 75 73 73 72 72 73 72 75 75 74 73 73 73 74 75 73 73 73 72 71 69 68 66 64 66 65 68 66 66 64 67 68 70 69 73 74 74 76 78 78 78 77 76 76 77 77 77 77
67 67 68 70 70 69 70 71 71 72 72 71 72 72 72 72 73 73 72 72 73 72 72 73 73 74 74 75 75 74 75 73 74 73 73 74 73 73 72 73 72 72 74 74 74 76 75 74 75 77 76 77 74 74 75 71 71 68 68 64 66 65 65 66 64 63 66 68 69 69 71 69 73 74 75 76 77 77 77 76 77 77 76 77 77
68 67 68 69 69 69 70 71 72 73 72 71 71 71 72 71 72 72 72 72 72 73 72 72 73 74 75 75 75 75 76 74 74 75 75 73 73 74 72 73 73 73 74 75 76 77 75 74 74 75 75 74 71 70 70 69 68 70 67 62 64 64 66 67 67 66 64 67 69 68 69 70 70 73 74 75 76 77 77 77 77 77 77 77 77
68 68 68 68 69 69 70 71 72 71 72 71 72 72 72 72 72 72 72 72 71 72 72 74 74 74 74 75 75 75 75 75 75 75 74 73 73 73 73 72 73 74 75 76 74 74 73 73 73 73 73 73 69 71 70 69 68 69 67 65 65 66 66 64 65 65 66 66 68 71 69 70 72 72 71 76 76 77 77 77 77 77 77 78 77
69 68 68 69 69 70 70 70 71 71 72 73 72 72 72 71 72 72 72 72 72 72 72 72 73 73 73 74 75 75 76 76 76 76 74 74 72 72 71 72 73 75 75 75 75 74 73 73 74 74 72 69 68 72 70 70 70 69 70 68 64 64 66 64 66 66 66 69 70 68 71 70 70 72 72 71 78 77 78 77 77 77 78 78 78
68 69 70 69 69 70 71 70 70 71 72 72 72 73 72 72 72 72 72 72 71 71 71 71 71 72 73 74 75 76 76 76 76 76 74 74 71 71 72 74 76 76 75 75 75 73 74 73 74 75 73 68 72 67 71 72 70 66 68 68 66 67 66 65 65 62 63 68 69 69 70 72 73 73 74 73 73 76 78 77 77 78 77 77 78
68 68 69 69 69 69 71 69 69 69 71 71 73 73 73 72 73 71 70 72 71 71 71 72 72 72 73 72 75 76 76 76 77 77 75 74 73 72 71 74 77 75 75 74 73 74 74 70 76 76 76 76 70 65 67 71 69 65 63 61 61 66 63 67 64 64 65 69 69 65 67 70 73 74 75 72 74 74 78 77 76 77 78 77 77
69 68 69 69 69 69 69 69 70 69 71 72 73 73 73 73 72 72 73 71 70 70 71 72 72 72 72 73 75 76 76 77 77 77 77 74 73 73 73 75 77 76 75 74 73 73 74 74 74 76 76 77 72 69 68 68 65 59 62 59 64 61 65 68 69 70 69 68 69 67 67 66 68 67 69 71 70 73 73 76 77 77 77 78 78
69 68 70 71 71 70 71 71 71 70 71 73 73 73 73 73 72 72 72 72 72 71 71 71 71 72 71 74 76 75 76 77 77 78 77 74 74 74 74 77 76 76 76 73 72 73 74 75 75 75 78 76 74 74 72 72 64 59 57 59 61 67 70 68 72 69 66 63 64 68 64 69 67 69 71 71 69 71 73 74 73 73 76 78 78
69 70 71 71 72 72 71 72 72 70 72 72 72 71 72 71 70 71 71 72 71 72 72 71 72 71 72 73 75 76 76 77 78 78 78 76 74 73 75 76 76 76 75 72 72 72 75 76 75 74 76 74 74 74 73 71 66 64 64 62 64 65 66 67 67 65 68 66 66 67 63 65 68 68 66 67 69 67 71 73 76 72 72 76 77
70 70 70 70 71 71 71 72 72 72 72 71 71 70 70 71 71 69 69 70 72 72 71 72 71 70 73 73 75 74 76 77 78 78 77 77 76 75 76 76 75 76 76 74 75 75 77 76 76 78 74 73 70 72 72 70 69 62 67 61 63 66 64 66 63 62 62 62 64 65 65 66 66 68 69 67 68 67 68 72 72 74 74 75 78
70 70 70 70 71 70 71 71 72 72 72 71 71 71 72 71 70 70 69 69 71 72 71 72 70 71 75 76 75 75 76 77 77 78 78 76 76 74 75 76 76 76 76 76 77 76 76 75 75 75 76 72 71 70 71 71 64 58 58 59 59 61 65 62 59 58 59 60 61 64 67 62 61 63 66 68 69 68 65 69 73 70 74 75 74
69 69 70 70 71 71 71 72 72 71 72 72 72 72 72 72 71 71 70 70 71 72 70 71 72 70 73 75 76 76 77 76 77 77 76 76 75 75 75 76 76 76 76 74 75 75 75 74 75 74 72 72 72 70 73 72 60 63 66 63 60 61 63 62 61 60 58 58 59 59 61 60 61 64 67 67 67 69 65 68 71 73 75 76 74
69 69 70 70 70 72 72 72 72 72 72 73 72 72 73 73 73 73 72 71 71 73 74 74 74 72 71 73 76 77 76 75 75 75 75 76 77 76 75 75 77 78 76 75 75 74 75 75 73 74 76 68 66 68 71 73 68 63 62 61 61 60 55 61 63 62 58 58 58 58 59 61 62 65 68 67 62 67 70 70 69 73 76 75 75
68 69 69 69 69 70 71 72 72 72 73 73 73 73 73 73 73 73 73 73 73 72 72 71 72 73 71 73 73 76 77 75 75 75 75 76 77 77 76 76 76 77 76 75 75 72 73 74 76 76 74 72 66 68 70 70 71 71 67 66 62 64 58 58 57 63 57 56 58 58 64 62 60 65 64 63 64 66 64 64 71 72 75 75 74
68 68 68 68 69 70 71 72 72 72 72 73 74 73 73 72 72 71 71 70 70 70 70 70 70 71 69 71 73 74 74 75 75 76 76 76 77 77 77 76 75 77 76 73 74 73 73 73 74 74 73 74 74 71 66 71 70 73 71 68 70 63 62 63 58 60 65 58 59 59 62 61 60 61 65 62 62 62 67 66 68 69 70 72 74
67 68 68 68 69 70 71 71 72 72 72 73 74 73 73 72 71 70 70 70 70 70 72 71 71 71 72 73 73 75 76 74 75 76 76 77 77 77 77 76 75 75 76 76 74 72 71 72 75 74 74 76 76 73 70 66 71 71 66 67 69 70 64 64 62 60 59 63 60 58 59 60 59 58 57 58 60 62 66 68 65 64 66 72 72
67 68 68 68 70 72 72 72 72 72 72 73 73 73 73 72 72 71 71 70 68 70 72 72 72 73 72 73 73 73 75 75 75 77 77 77 77 77 77 76 75 74 74 75 74 74 73 75 77 77 77 77 76 73 71 69 68 68 68 66 67 69 70 66 61 58 59 59 59 58 58 58 57 57 59 60 60 61 62 67 64 63 66 68 73
67 67 68 69 70 71 72 72 72 73 73 74 73 73 73 73 72 71 72 72 71 71 72 73 73 74 73 73 74 73 74 75 76 75 76 77 76 76 76 76 74 74 75 75 75 74 73 74 76 76 74 75 75 75 75 73 69 66 71 70 68 66 64 64 64 63 61 58 55 57 59 58 58 58 62 62 62 63 63 63 66 66 69 71 72
67 68 68 68 69 71 72 72 72 72 73 74 74 74 73 73 73 73 72 73 73 73 73 73 74 75 73 74 75 74 72 73 74 76 76 76 76 76 75 74 74 73 74 75 75 74 74 75 75 73 75 74 75 74 73 73 71 70 69 72 73 68 67 65 62 61 61 64 59 57 57 57 60 62 64 62 63 63 64 65 65 64 68 71 72
67 67 67 68 68 70 71 72 72 72 73 73 73 73 73 73 72 73 73 73 73 73 73 74 74 75 74 73 73 74 74 73 72 74 75 74 75 76 74 73 74 75 75 75 75 72 71 72 73 75 76 74 73 74 74 74 73 74 69 72 70 63 66 63 64 64 60 60 60 57 60 57 58 59 65 65 67 65 67 67 66 67 73 72 75